period_start,C,m1,H,J0,J1,J2,J3,J4,J5,JA,JB,JC,JD,JJ,JK,JN,#
2016-11-24 00:03:39,0.18,2.40,0.00,19.96,24.85,28.58,14.93,49.46,1022.48,2035.10,2592.13,2547.48,2870.97,600.40,605.99,24.00,0000 0000 0000 0000 000000
2016-11-24 00:08:41,0.19,2.41,0.00,19.96,24.85,28.55,14.87,49.46,1022.48,2035.27,2589.33,2545.57,2868.92,599.96,605.68,24.05,0000 0000 0000 0000 000000
2016-11-24 00:13:42,0.20,2.42,0.00,19.95,24.85,28.51,14.83,49.53,1022.48,2035.29,2586.14,2543.49,2866.53,600.09,605.79,24.10,0000 0000 0000 0000 000000
2016-11-24 00:18:43,0.28,2.43,0.00,19.95,24.83,28.55,14.89,49.73,1022.45,2035.58,2582.34,2540.84,2863.62,600.15,605.92,24.15,0000 0000 0000 0000 000000
2016-11-24 00:23:45,0.41,2.45,0.00,19.96,24.82,28.52,14.88,49.68,1022.14,2035.64,2576.45,2536.69,2858.97,599.91,605.32,24.20,0000 0000 0000 0000 000000
2016-11-24 00:28:46,0.34,2.47,0.00,19.94,24.82,28.51,14.90,49.74,1022.07,2035.66,2570.68,2532.80,2854.80,600.15,605.49,24.25,0000 0000 0000 0000 000000
2016-11-24 00:33:48,0.24,2.48,0.00,19.91,24.80,28.54,14.86,49.77,1022.03,2035.77,2566.67,2530.07,2851.77,599.72,605.25,24.30,0000 0000 0000 0000 000000
2016-11-24 00:38:49,0.20,2.49,0.00,19.93,24.80,28.47,14.89,49.83,1022.09,2035.92,2563.65,2528.02,2849.47,599.80,605.28,24.35,0000 0000 0000 0000 000000
2016-11-24 00:43:50,0.18,2.50,0.00,19.93,24.78,28.45,14.86,49.73,1022.20,2035.95,2560.91,2526.06,2847.30,600.04,605.69,24.40,0000 0000 0000 0000 000000
2016-11-24 00:48:52,0.20,2.51,0.00,19.93,24.77,28.46,14.95,49.75,1022.43,2035.97,2558.12,2523.91,2844.76,600.30,606.02,24.45,0000 0000 0000 0000 000000
2016-11-24 00:53:53,0.26,2.53,0.00,19.92,24.77,28.47,14.85,49.75,1022.42,2035.96,2554.27,2521.13,2841.59,600.13,605.87,24.50,0000 0000 0000 0000 000000
2016-11-24 00:58:54,0.25,2.54,0.00,19.92,24.75,28.46,14.92,49.92,1022.47,2035.97,2550.28,2518.36,2838.54,599.95,605.76,24.55,0000 0000 0000 0000 000000
2016-11-24 01:03:55,0.22,2.55,0.00,19.90,24.75,28.46,14.90,50.01,1022.47,2035.98,2546.64,2515.99,2835.95,600.19,605.91,24.61,0000 0000 0000 0000 000000
2016-11-24 01:08:56,0.21,2.56,0.00,19.90,24.75,28.44,14.83,49.98,1022.48,2035.98,2543.57,2513.75,2833.41,600.00,605.81,24.66,0000 0000 0000 0000 000000
2016-11-24 01:13:58,0.21,2.57,0.00,19.88,24.74,28.44,14.88,49.98,1022.48,2035.98,2540.23,2511.38,2830.66,599.94,605.77,24.71,0000 0000 0000 0000 000000
2016-11-24 01:18:59,0.22,2.58,0.00,19.89,24.73,28.49,14.85,49.93,1022.48,2035.98,2536.93,2509.08,2828.11,600.06,605.83,24.76,0000 0000 0000 0000 000000
2016-11-24 01:24:01,0.19,2.59,0.00,19.90,24.72,28.46,14.82,49.96,1022.47,2035.98,2533.73,2506.90,2825.75,599.69,605.57,24.81,0000 0000 0000 0000 000000
2016-11-24 01:29:02,0.13,2.60,0.00,19.89,24.72,28.42,14.80,49.95,1022.48,2035.99,2531.30,2505.38,2824.05,600.13,605.90,24.86,0000 0000 0000 0000 000000
2016-11-24 01:34:03,0.14,2.61,0.00,19.88,24.72,28.41,14.92,49.97,1022.48,2035.99,2529.10,2503.91,2822.49,600.13,606.02,24.91,0000 0000 0000 0000 000000
2016-11-24 01:39:04,0.14,2.61,0.00,19.87,24.72,28.45,14.86,49.94,1022.38,2035.99,2527.11,2502.48,2820.74,600.11,605.98,24.96,0000 0000 0000 0000 000000
2016-11-24 01:44:06,0.15,2.62,0.00,19.88,24.71,28.45,14.82,50.01,1022.05,2035.99,2524.73,2500.89,2818.84,599.80,605.60,25.01,0000 0000 0000 0000 000000
2016-11-24 01:49:07,0.18,2.63,0.00,19.88,24.70,28.40,14.88,50.06,1022.01,2036.00,2522.14,2499.04,2816.80,600.19,605.76,25.06,0000 0000 0000 0000 000000
2016-11-24 01:54:08,0.20,2.64,0.00,19.88,24.70,28.43,14.87,50.10,1021.99,2036.00,2519.07,2496.94,2814.48,599.89,605.56,25.11,0000 0000 0000 0000 000000
2016-11-24 01:59:10,0.18,2.65,0.00,19.88,24.70,28.46,14.90,50.06,1021.99,2036.00,2516.18,2495.02,2812.12,600.14,605.69,25.16,0000 0000 0000 0000 000000
2016-11-24 02:04:11,0.24,2.66,0.00,19.87,24.70,28.41,14.80,50.12,1021.99,2036.00,2512.73,2492.59,2809.30,599.89,605.41,25.21,0000 0000 0000 0000 000000
2016-11-24 02:09:13,0.25,2.67,0.00,19.86,24.69,28.35,14.87,50.17,1021.99,2036.00,2508.85,2490.02,2806.38,599.87,605.45,25.26,0000 0000 0000 0000 000000
2016-11-24 02:14:14,0.20,2.68,0.00,19.87,24.67,28.41,14.85,50.04,1021.99,2036.00,2505.58,2487.75,2803.92,599.94,605.51,25.31,0000 0000 0000 0000 000000
2016-11-24 02:19:16,0.18,2.69,0.00,19.85,24.67,28.38,14.79,50.01,1021.99,2036.00,2502.72,2485.72,2801.65,599.77,605.40,25.36,0000 0000 0000 0000 000000
2016-11-24 02:24:16,0.18,2.70,0.00,19.85,24.66,28.33,14.93,50.10,1022.00,2036.00,2499.94,2483.75,2799.50,600.26,605.90,25.41,0000 0000 0000 0000 000000
2016-11-24 02:29:18,0.16,2.71,0.00,19.84,24.65,28.35,14.90,50.15,1021.99,2036.01,2497.38,2482.08,2797.53,600.21,605.91,25.46,0000 0000 0000 0000 000000
2016-11-24 02:34:19,0.16,2.72,0.00,19.86,24.65,28.37,14.90,50.04,1021.99,2036.02,2494.81,2480.31,2795.54,600.04,605.72,25.51,0000 0000 0000 0000 000000
2016-11-24 02:39:21,0.16,2.73,0.00,19.87,24.64,28.38,14.80,49.91,1021.99,2036.01,2492.49,2478.64,2793.64,600.05,605.69,25.56,0000 0000 0000 0000 000000
2016-11-24 02:44:22,0.17,2.74,0.00,19.88,24.64,28.35,14.87,50.08,1021.99,2036.02,2490.11,2476.91,2791.67,599.87,605.42,25.61,0000 0000 0000 0000 000000
2016-11-24 02:49:24,0.14,2.75,0.00,19.88,24.62,28.33,14.84,50.13,1021.98,2036.02,2487.83,2475.37,2789.78,600.14,605.80,25.66,0000 0000 0000 0000 000000
2016-11-24 02:54:25,0.16,2.75,0.00,19.87,24.62,28.34,14.90,50.26,1021.96,2036.02,2485.59,2473.72,2787.96,599.85,605.39,25.71,0000 0000 0000 0000 000000
2016-11-24 02:59:26,0.28,2.76,0.00,19.86,24.62,28.36,14.84,50.27,1021.98,2036.01,2481.98,2471.19,2785.15,600.13,605.73,25.76,0000 0000 0000 0000 000000
2016-11-24 03:04:28,0.29,2.78,0.00,19.89,24.62,28.31,14.84,50.21,1021.94,2036.00,2477.41,2468.00,2781.46,599.99,605.40,25.81,0000 0000 0000 0000 000000
2016-11-24 03:09:29,0.27,2.79,0.00,19.87,24.61,28.36,14.84,50.17,1021.96,2036.01,2473.53,2465.27,2778.36,599.90,605.48,25.86,0000 0000 0000 0000 000000
2016-11-24 03:14:30,0.33,2.81,0.00,19.84,24.60,28.34,14.88,50.15,1021.99,2036.02,2468.63,2461.90,2774.71,599.85,605.50,25.91,0000 0000 0000 0000 000000
2016-11-24 03:19:31,0.29,2.83,0.00,19.83,24.60,28.31,14.80,50.09,1021.97,2036.01,2464.06,2458.72,2771.25,599.82,605.47,25.96,0000 0000 0000 0000 000000
2016-11-24 03:24:33,0.22,2.84,0.00,19.85,24.60,28.32,14.94,50.14,1021.97,2036.05,2460.66,2456.38,2768.59,600.17,605.70,26.01,0000 0000 0000 0000 000000
2016-11-24 03:29:34,0.23,2.85,0.00,19.84,24.59,28.29,14.87,50.08,1021.97,2036.04,2457.34,2454.10,2766.03,600.20,605.85,26.06,0000 0000 0000 0000 000000
2016-11-24 03:34:36,0.20,2.86,0.00,19.86,24.57,28.31,14.87,50.08,1021.96,2036.03,2454.28,2451.97,2763.64,600.02,605.60,26.11,0000 0000 0000 0000 000000
2016-11-24 03:39:37,0.19,2.87,0.00,19.84,24.57,28.27,14.92,50.17,1021.95,2036.06,2451.40,2449.96,2761.37,600.10,605.72,26.16,0000 0000 0000 0000 000000
2016-11-24 03:44:38,0.18,2.88,0.00,19.88,24.57,28.27,14.88,50.20,1021.69,2036.08,2448.77,2448.10,2759.20,600.02,605.37,26.21,0000 0000 0000 0000 000000
2016-11-24 03:49:39,0.19,2.89,0.00,19.88,24.57,28.30,14.93,50.19,1021.50,2036.12,2446.01,2446.18,2757.03,600.13,605.41,26.26,0000 0000 0000 0000 000000
2016-11-24 03:54:41,0.23,2.90,0.00,19.86,24.56,28.29,14.86,50.03,1021.43,2036.31,2442.90,2444.12,2754.78,599.75,604.97,26.31,0000 0000 0000 0000 000000
2016-11-24 03:59:42,0.24,2.91,0.00,19.85,24.55,28.28,14.85,50.25,1021.23,2036.64,2439.93,2442.05,2752.45,600.26,605.36,26.36,0000 0000 0000 0000 000000
2016-11-24 04:04:43,0.20,2.92,0.00,19.84,24.55,28.29,14.92,50.24,1021.48,2036.77,2436.89,2439.95,2750.30,600.34,605.70,26.41,0000 0000 0000 0000 000000
2016-11-24 04:09:45,0.22,2.93,0.00,19.85,24.55,28.27,14.91,50.30,1021.50,2036.69,2433.66,2437.66,2747.83,600.27,605.56,26.46,0000 0000 0000 0000 000000
2016-11-24 04:14:45,0.21,2.94,0.00,19.83,24.55,28.30,14.83,50.27,1021.50,2036.75,2430.69,2435.48,2745.36,599.66,605.02,26.51,0000 0000 0000 0000 000000
2016-11-24 04:19:47,0.22,2.96,0.00,19.81,24.54,28.28,14.88,50.27,1021.50,2036.82,2427.73,2433.36,2743.01,600.19,605.60,26.56,0000 0000 0000 0000 000000
2016-11-24 04:24:48,0.17,2.97,0.00,19.83,24.54,28.33,14.82,50.18,1021.47,2036.81,2425.22,2431.52,2740.76,599.91,605.22,26.61,0000 0000 0000 0000 000000
2016-11-24 04:29:49,0.14,2.97,0.00,19.85,24.54,28.29,14.88,50.17,1021.27,2036.67,2422.82,2429.82,2738.83,600.40,605.61,26.66,0000 0000 0000 0000 000000
2016-11-24 04:34:51,0.17,2.98,0.00,19.87,24.54,28.28,14.84,50.02,1021.04,2036.73,2420.50,2428.23,2736.91,599.62,604.60,26.71,0000 0000 0000 0000 000000
2016-11-24 04:39:52,0.16,2.99,0.00,19.84,24.55,28.29,14.87,49.79,1021.10,2036.63,2418.03,2426.58,2735.23,600.43,605.56,26.76,0000 0000 0000 0000 000000
2016-11-24 04:44:53,0.22,3.00,0.00,19.82,24.55,28.26,14.80,49.95,1021.22,2036.83,2415.32,2424.64,2733.05,599.82,604.97,26.81,0000 0000 0000 0000 000000
2016-11-24 04:49:54,0.21,3.01,0.00,19.83,24.55,28.28,14.92,50.11,1021.39,2036.88,2412.53,2422.61,2730.69,600.42,605.73,26.86,0000 0000 0000 0000 000000
2016-11-24 04:54:56,0.25,3.02,0.00,19.82,24.55,28.28,14.84,50.02,1021.29,2036.92,2408.95,2420.11,2728.05,599.98,605.21,26.91,0000 0000 0000 0000 000000
2016-11-24 04:59:57,0.23,3.04,0.00,19.83,24.54,28.29,14.82,50.17,1021.32,2036.95,2405.90,2417.67,2725.24,600.15,605.43,26.96,0000 0000 0000 0000 000000
2016-11-24 05:04:58,0.16,3.05,0.00,19.85,24.55,28.31,14.87,50.08,1021.49,2036.88,2403.34,2415.76,2722.97,600.15,605.49,27.01,0000 0000 0000 0000 000000
2016-11-24 05:09:59,0.16,3.05,0.00,19.82,24.55,28.30,14.93,50.14,1021.50,2036.81,2401.12,2414.10,2721.20,600.25,605.71,27.06,0000 0000 0000 0000 000000
2016-11-24 05:15:01,0.21,3.06,0.00,19.83,24.55,28.27,14.85,50.04,1021.50,2036.87,2398.23,2412.10,2719.06,599.79,605.16,27.11,0000 0000 0000 0000 000000
2016-11-24 05:20:02,0.20,3.07,0.00,19.82,24.55,28.29,14.89,50.24,1021.50,2036.93,2395.59,2410.01,2716.71,600.00,605.41,27.16,0000 0000 0000 0000 000000
2016-11-24 05:25:03,0.17,3.08,0.00,19.83,24.55,28.25,14.91,50.17,1021.50,2036.78,2393.09,2408.03,2714.44,600.19,605.54,27.21,0000 0000 0000 0000 000000
2016-11-24 05:30:05,0.14,3.09,0.00,19.83,24.55,28.28,14.89,50.26,1021.50,2036.79,2390.94,2406.45,2712.64,600.39,605.74,27.26,0000 0000 0000 0000 000000
2016-11-24 05:35:06,0.11,3.10,0.00,19.83,24.55,28.27,14.80,50.22,1021.50,2036.58,2389.00,2405.04,2711.11,600.04,605.41,27.31,0000 0000 0000 0000 000000
2016-11-24 05:40:08,0.13,3.11,0.00,19.82,24.55,28.26,14.88,50.36,1021.50,2036.56,2387.05,2403.62,2709.54,600.01,605.41,27.36,0000 0000 0000 0000 000000
2016-11-24 05:45:09,0.10,3.11,0.00,19.85,24.55,28.31,14.81,50.33,1021.48,2036.36,2385.42,2402.51,2708.13,599.86,605.13,27.41,0000 0000 0000 0000 000000
2016-11-24 05:50:10,0.15,3.12,0.00,19.86,24.56,28.29,14.74,50.24,1021.40,2036.50,2383.80,2401.39,2706.88,599.69,604.91,27.46,0000 0000 0000 0000 000000
2016-11-24 05:55:11,0.11,3.12,0.00,19.83,24.55,28.31,14.91,50.38,1021.27,2036.63,2382.09,2400.27,2705.59,600.21,605.46,27.51,0000 0000 0000 0000 000000
2016-11-24 06:00:13,0.13,3.13,0.00,19.80,24.56,28.31,14.83,50.30,1021.31,2036.84,2380.41,2399.04,2704.33,600.11,605.43,27.56,0000 0000 0000 0000 000000
2016-11-24 06:05:14,0.13,3.14,0.00,19.83,24.56,28.29,14.83,50.43,1021.37,2036.76,2378.56,2397.71,2702.84,599.97,605.32,27.61,0000 0000 0000 0000 000000
2016-11-24 06:10:16,0.13,3.14,0.00,19.83,24.55,28.28,14.90,50.46,1021.47,2036.77,2376.74,2396.50,2701.43,600.06,605.46,27.66,0000 0000 0000 0000 000000
2016-11-24 06:15:17,0.12,3.15,0.00,19.84,24.55,28.28,14.87,50.38,1021.47,2036.88,2375.02,2395.36,2700.01,600.15,605.50,27.71,0000 0000 0000 0000 000000
2016-11-24 06:20:18,0.10,3.16,0.00,19.83,24.55,28.28,14.85,50.40,1021.44,2036.76,2373.26,2394.09,2698.57,600.00,605.30,27.76,0000 0000 0000 0000 000000
2016-11-24 06:25:19,0.13,3.16,0.00,19.83,24.55,28.28,14.85,50.44,1021.45,2036.84,2371.49,2392.89,2697.28,599.79,605.13,27.81,0000 0000 0000 0000 000000
2016-11-24 06:30:20,0.14,3.17,0.00,19.82,24.56,28.26,14.85,50.44,1021.47,2036.91,2369.69,2391.72,2695.83,600.12,605.60,27.86,0000 0000 0000 0000 000000
2016-11-24 06:35:21,0.12,3.17,0.00,19.81,24.56,28.32,14.96,50.42,1021.50,2036.86,2367.89,2390.44,2694.46,600.45,605.89,27.91,0000 0000 0000 0000 000000
2016-11-24 06:40:22,0.11,3.18,0.00,19.81,24.57,28.28,14.87,50.42,1021.50,2036.87,2366.23,2389.16,2692.98,600.14,605.56,27.96,0000 0000 0000 0000 000000
2016-11-24 06:45:23,0.12,3.19,0.00,19.82,24.57,28.26,14.87,50.48,1021.45,2036.86,2364.58,2387.93,2691.57,599.94,605.33,28.01,0000 0000 0000 0000 000000
2016-11-24 06:50:25,0.13,3.19,0.00,19.81,24.57,28.27,14.82,50.46,1021.34,2036.85,2362.83,2386.75,2690.17,599.92,605.13,28.06,0000 0000 0000 0000 000000
2016-11-24 06:55:26,0.14,3.20,0.00,19.80,24.57,28.28,14.90,50.52,1021.40,2036.91,2360.96,2385.52,2688.74,600.21,605.58,28.11,0000 0000 0000 0000 000000
2016-11-24 07:00:27,0.12,3.21,0.00,19.84,24.57,28.30,14.90,50.64,1021.43,2036.86,2359.02,2384.21,2687.30,600.04,605.40,28.16,0000 0000 0000 0000 000000
2016-11-24 07:05:28,0.13,3.21,0.00,19.84,24.57,28.30,14.84,50.60,1021.44,2036.87,2357.11,2382.84,2685.82,600.01,605.18,28.21,0000 0000 0000 0000 000000
2016-11-24 07:10:29,0.13,3.22,0.00,19.82,24.57,28.27,14.81,50.57,1021.40,2036.88,2355.32,2381.56,2684.44,600.15,605.29,28.26,0000 0000 0000 0000 000000
2016-11-24 07:15:31,0.09,3.23,0.00,19.84,24.57,28.26,14.84,50.67,1021.15,2036.79,2353.71,2380.49,2683.10,599.99,605.08,28.31,0000 0000 0000 0000 000000
2016-11-24 07:20:32,0.11,3.23,0.00,19.84,24.57,28.28,14.86,50.67,1021.05,2036.87,2352.32,2379.47,2681.94,600.24,605.34,28.36,0000 0000 0000 0000 000000
2016-11-24 07:25:33,0.10,3.24,0.00,19.85,24.57,28.31,14.83,50.60,1021.01,2036.86,2350.87,2378.50,2680.88,599.86,604.94,28.42,0000 0000 0000 0000 000000
2016-11-24 07:30:35,0.10,3.24,0.00,19.86,24.57,28.28,14.86,50.56,1021.01,2036.91,2349.55,2377.56,2679.89,599.79,604.75,28.47,0000 0000 0000 0000 000000
2016-11-24 07:35:36,0.07,3.25,0.00,19.86,24.57,28.31,14.84,50.52,1021.01,2036.85,2348.28,2376.64,2678.79,599.81,604.81,28.52,0000 0000 0000 0000 000000
2016-11-24 07:40:37,0.09,3.25,0.00,19.86,24.57,28.29,14.83,50.55,1021.01,2036.95,2346.99,2375.84,2677.83,599.94,604.97,28.57,0000 0000 0000 0000 000000
2016-11-24 07:45:39,0.10,3.26,0.00,19.87,24.57,28.29,14.79,50.52,1021.01,2036.95,2345.70,2374.88,2676.72,599.51,604.57,28.62,0000 0000 0000 0000 000000
2016-11-24 07:50:40,0.12,3.26,0.00,19.87,24.57,28.28,14.82,50.51,1021.03,2036.91,2344.16,2373.72,2675.44,600.29,605.21,28.67,0000 0000 0000 0000 000000
2016-11-24 07:55:41,0.13,3.27,0.00,19.87,24.58,28.27,14.86,50.53,1021.26,2036.95,2342.41,2372.55,2673.97,600.67,605.85,28.72,0000 0000 0000 0000 000000
2016-11-24 08:00:43,0.14,3.28,0.00,19.88,24.59,28.32,14.85,50.55,1021.48,2036.94,2340.38,2371.13,2672.42,599.87,605.12,28.77,0000 0000 0000 0000 000000
2016-11-24 08:05:44,0.15,3.28,0.00,19.89,24.59,28.31,14.90,50.48,1021.50,2036.92,2338.35,2369.68,2670.77,600.08,605.27,28.82,0000 0000 0000 0000 000000
2016-11-24 08:10:45,0.15,3.29,0.00,19.89,24.59,28.33,14.84,50.50,1021.50,2036.84,2336.07,2368.15,2669.02,599.60,604.85,28.87,0000 0000 0000 0000 000000
2016-11-24 08:15:46,0.17,3.30,0.00,19.90,24.59,28.32,14.81,50.54,1021.47,2036.79,2333.64,2366.65,2667.19,599.65,604.85,28.92,0000 0000 0000 0000 000000
2016-11-24 08:20:48,0.18,3.31,0.00,19.92,24.59,28.31,14.89,50.63,1021.43,2036.90,2331.23,2364.99,2665.31,600.04,605.24,28.97,0000 0000 0000 0000 000000
2016-11-24 08:25:49,0.15,3.32,0.00,19.91,24.59,28.31,14.87,50.51,1021.36,2036.86,2328.92,2363.44,2663.47,600.05,605.08,29.02,0000 0000 0000 0000 000000
2016-11-24 08:30:50,0.18,3.33,0.00,19.92,24.60,28.29,14.82,50.48,1021.46,2036.85,2326.65,2361.78,2661.67,599.78,604.84,29.07,0000 0000 0000 0000 000000
2016-11-24 08:35:51,0.14,3.34,0.00,19.91,24.60,28.30,14.86,50.58,1021.50,2036.81,2324.35,2360.22,2659.89,599.70,604.91,29.12,0000 0000 0000 0000 000000
2016-11-24 08:40:53,0.17,3.34,0.00,19.90,24.60,28.30,14.84,50.62,1021.51,2036.78,2322.15,2358.64,2658.15,599.74,604.98,29.17,0000 0000 0000 0000 000000
2016-11-24 08:45:54,0.13,3.35,0.00,19.92,24.60,28.31,14.82,50.60,1021.51,2036.87,2320.46,2357.42,2656.71,600.16,605.43,29.22,0000 0000 0000 0000 000000
2016-11-24 08:50:55,0.10,3.36,0.00,19.96,24.60,28.35,14.84,50.52,1021.51,2036.80,2318.85,2356.29,2655.49,599.86,604.92,29.27,0000 0000 0000 0000 000000
2016-11-24 08:55:57,0.11,3.36,0.00,19.96,24.61,28.33,14.90,50.64,1021.50,2036.80,2317.36,2355.22,2654.18,599.98,605.10,29.32,0000 0000 0000 0000 000000
2016-11-24 09:00:58,0.11,3.37,0.00,19.96,24.62,28.31,14.83,50.59,1021.50,2036.85,2315.85,2354.14,2652.96,599.76,604.90,29.37,0000 0000 0000 0000 000000
2016-11-24 09:05:59,0.11,3.37,0.00,19.97,24.62,28.33,14.86,50.62,1021.50,2036.92,2314.50,2353.20,2651.83,600.23,605.31,29.42,0000 0000 0000 0000 000000
2016-11-24 09:11:01,0.08,3.38,0.00,19.97,24.62,28.33,14.85,50.59,1021.43,2036.76,2313.12,2352.17,2650.65,599.47,604.63,29.47,0000 0000 0000 0000 000000
2016-11-24 09:16:02,0.10,3.38,0.00,19.98,24.64,28.33,14.86,50.63,1021.45,2036.66,2311.72,2351.19,2649.57,600.17,605.20,29.52,0000 0000 0000 0000 000000
2016-11-24 09:21:03,0.07,3.39,0.00,19.98,24.65,28.36,14.84,50.60,1021.43,2036.43,2310.38,2350.17,2648.41,599.71,604.73,29.57,0000 0000 0000 0000 000000
2016-11-24 09:26:04,0.09,3.39,0.00,20.00,24.65,28.35,14.84,50.58,1021.39,2036.33,2308.86,2349.18,2647.33,599.98,604.94,29.62,0000 0000 0000 0000 000000
2016-11-24 09:31:06,0.11,3.40,0.00,20.02,24.66,28.35,14.93,50.77,1021.40,2036.39,2307.48,2348.15,2646.12,600.43,605.44,29.67,0000 0000 0000 0000 000000
2016-11-24 09:36:07,0.07,3.40,0.00,20.03,24.67,28.40,14.87,50.72,1021.41,2036.37,2306.14,2347.19,2645.00,600.31,605.24,29.72,0000 0000 0000 0000 000000
2016-11-24 09:41:09,0.10,3.41,0.00,20.03,24.68,28.39,14.90,50.60,1021.42,2036.19,2304.88,2346.25,2643.88,600.31,605.13,29.77,0000 0000 0000 0000 000000
2016-11-24 09:46:10,0.10,3.41,0.00,20.06,24.70,28.39,14.88,50.78,1021.50,2036.14,2303.55,2345.30,2642.80,599.72,604.54,29.82,0000 0000 0000 0000 000000
2016-11-24 09:51:11,0.09,3.42,0.00,20.08,24.70,28.41,14.86,50.76,1021.51,2036.08,2302.31,2344.29,2641.56,600.21,605.08,29.87,0000 0000 0000 0000 000000
2016-11-24 09:56:13,0.11,3.42,0.00,20.09,24.70,28.43,14.90,50.78,1021.51,2036.05,2300.79,2343.24,2640.42,600.28,605.14,29.92,0000 0000 0000 0000 000000
2016-11-24 10:01:14,0.10,3.43,0.00,20.08,24.72,28.44,14.82,50.65,1021.51,2036.02,2299.38,2342.16,2639.20,600.30,605.06,29.97,0000 0000 0000 0000 000000
2016-11-24 10:06:16,0.10,3.43,0.00,20.10,24.72,28.40,14.79,50.73,1021.54,2036.01,2297.91,2341.17,2638.03,599.79,604.57,30.02,0000 0000 0000 0000 000000
2016-11-24 10:11:17,0.11,3.44,0.00,20.09,24.72,28.41,14.83,50.71,1021.61,2036.03,2296.59,2340.14,2636.88,599.93,604.82,30.07,0000 0000 0000 0000 000000
2016-11-24 10:16:18,0.10,3.44,0.00,20.09,24.74,28.42,14.89,50.84,1021.85,2036.01,2295.19,2339.11,2635.74,600.37,605.41,30.12,0000 0000 0000 0000 000000
2016-11-24 10:21:19,0.12,3.45,0.00,20.09,24.75,28.44,14.78,50.64,1021.93,2036.00,2293.67,2338.01,2634.51,599.89,605.14,30.17,0000 0000 0000 0000 000000
2016-11-24 10:26:21,0.13,3.46,0.00,20.09,24.75,28.44,14.81,50.79,1021.98,2036.00,2291.95,2336.76,2633.03,599.99,605.03,30.22,0000 0000 0000 0000 000000
2016-11-24 10:31:22,0.13,3.46,0.00,20.10,24.77,28.45,14.82,50.48,1021.99,2036.00,2290.32,2335.59,2631.69,599.98,605.08,30.27,0000 0000 0000 0000 000000
2016-11-24 10:36:24,0.13,3.47,0.00,20.11,24.77,28.46,14.78,50.52,1021.99,2036.00,2288.63,2334.36,2630.31,599.64,604.67,30.32,0000 0000 0000 0000 000000
2016-11-24 10:41:25,0.13,3.48,0.00,20.12,24.78,28.47,14.79,50.47,1021.99,2036.00,2286.85,2333.04,2628.82,599.66,604.62,30.37,0000 0000 0000 0000 000000
2016-11-24 10:46:26,0.13,3.48,0.00,20.14,24.80,28.48,14.83,50.48,1022.00,2036.00,2285.12,2331.74,2627.42,599.85,604.89,30.42,0000 0000 0000 0000 000000
2016-11-24 10:51:28,0.12,3.49,0.00,20.14,24.80,28.48,14.82,50.49,1022.00,2036.00,2283.52,2330.63,2626.06,600.09,605.12,30.47,0000 0000 0000 0000 000000
2016-11-24 10:56:29,0.12,3.50,0.00,20.14,24.81,28.50,14.84,50.59,1022.01,2036.00,2281.87,2329.42,2624.78,599.61,604.52,30.52,0000 0000 0000 0000 000000
2016-11-24 11:01:30,0.11,3.50,0.00,20.12,24.82,28.52,14.88,50.55,1022.03,2035.99,2280.53,2328.37,2623.54,600.08,605.08,30.57,0000 0000 0000 0000 000000
2016-11-24 11:06:32,0.10,3.51,0.00,20.15,24.83,28.53,14.81,50.59,1022.02,2035.99,2279.01,2327.32,2622.51,599.77,604.79,30.62,0000 0000 0000 0000 000000
2016-11-24 11:11:33,0.11,3.51,0.00,20.15,24.85,28.51,14.88,50.72,1022.06,2035.99,2277.58,2326.23,2621.26,600.24,605.28,30.67,0000 0000 0000 0000 000000
2016-11-24 11:16:35,0.10,3.52,0.00,20.16,24.85,28.52,14.89,50.65,1022.20,2035.97,2276.18,2325.14,2620.00,600.09,605.12,30.72,0000 0000 0000 0000 000000
2016-11-24 11:21:36,0.11,3.52,0.00,20.19,24.87,28.53,14.86,50.62,1022.34,2035.96,2274.80,2324.14,2618.85,599.87,605.06,30.77,0000 0000 0000 0000 000000
2016-11-24 11:26:37,0.11,3.53,0.00,20.18,24.87,28.56,14.84,50.77,1022.44,2035.94,2273.49,2323.11,2617.65,599.88,605.08,30.82,0000 0000 0000 0000 000000
2016-11-24 11:31:39,0.10,3.53,0.00,20.18,24.89,28.54,14.84,50.59,1022.47,2035.87,2271.98,2321.96,2616.43,599.98,605.18,30.87,0000 0000 0000 0000 000000
2016-11-24 11:36:40,0.11,3.54,0.00,20.20,24.90,28.55,14.83,50.66,1022.45,2035.69,2270.27,2320.77,2615.06,599.99,605.15,30.92,0000 0000 0000 0000 000000
2016-11-24 11:41:41,0.10,3.54,0.00,20.19,24.91,28.58,14.85,50.68,1022.42,2035.53,2268.78,2319.65,2613.69,600.31,605.50,30.97,0000 0000 0000 0000 000000
2016-11-24 11:46:42,0.07,3.55,0.00,20.20,24.92,28.58,14.81,50.59,1022.43,2035.16,2267.36,2318.51,2612.45,599.77,604.92,31.02,0000 0000 0000 0000 000000
2016-11-24 11:51:44,0.11,3.55,0.00,20.21,24.93,28.58,14.81,50.62,1022.46,2035.05,2265.84,2317.41,2611.19,599.96,605.13,31.08,0000 0000 0000 0000 000000
2016-11-24 11:56:45,0.11,3.56,0.00,20.19,24.95,28.60,14.85,50.61,1022.46,2035.04,2264.46,2316.34,2609.94,600.09,605.37,31.13,0000 0000 0000 0000 000000
2016-11-24 12:01:46,0.34,3.57,0.00,20.19,24.95,28.62,14.88,50.63,1022.48,2035.03,2259.56,2313.81,2607.03,600.14,605.36,31.18,0000 0000 0000 0000 000000
2016-11-24 12:06:48,0.11,3.58,0.00,20.22,24.96,28.61,14.83,50.63,1022.48,2035.00,2257.52,2312.46,2605.54,600.14,605.24,31.23,0000 0000 0000 0000 000000
2016-11-24 12:11:49,0.10,3.59,0.00,20.22,24.97,28.62,14.85,50.70,1022.48,2035.01,2256.27,2311.52,2604.42,600.13,605.33,31.28,0000 0000 0000 0000 000000
2016-11-24 12:16:51,0.10,3.59,0.00,20.24,24.97,28.64,14.78,50.58,1022.48,2035.00,2254.91,2310.55,2603.32,600.04,605.08,31.33,0000 0000 0000 0000 000000
2016-11-24 12:21:52,0.10,3.60,0.00,20.26,24.97,28.63,14.80,50.66,1022.49,2035.00,2253.60,2309.57,2602.21,599.77,604.83,31.38,0000 0000 0000 0000 000000
2016-11-24 12:26:53,0.09,3.61,0.00,20.28,24.99,28.65,14.91,50.64,1022.49,2035.00,2252.33,2308.59,2601.11,600.18,605.18,31.43,0000 0000 0000 0000 000000
2016-11-24 12:31:55,0.07,3.61,0.00,20.27,25.00,28.66,14.80,50.49,1022.50,2035.00,2251.09,2307.84,2600.18,599.80,604.92,31.48,0000 0000 0000 0000 000000
2016-11-24 12:36:56,0.08,3.61,0.00,20.28,25.00,28.68,14.85,50.62,1022.50,2035.00,2250.04,2307.03,2599.25,599.91,604.87,31.53,0000 0000 0000 0000 000000
2016-11-24 12:41:58,0.09,3.62,0.00,20.31,25.00,28.69,14.92,50.62,1022.52,2035.00,2248.98,2306.21,2598.36,600.32,605.34,31.58,0000 0000 0000 0000 000000
2016-11-24 12:46:59,0.08,3.62,0.00,20.32,25.02,28.68,14.80,50.57,1022.57,2034.99,2248.06,2305.57,2597.55,599.75,604.79,31.63,0000 0000 0000 0000 000000
2016-11-24 12:52:00,0.04,3.63,0.00,20.32,25.02,28.70,14.79,50.67,1022.49,2034.99,2247.24,2305.01,2596.99,599.54,604.44,31.68,0000 0000 0000 0000 000000
2016-11-24 12:57:02,0.07,3.63,0.00,20.31,25.02,28.71,14.87,50.72,1022.49,2034.98,2246.70,2304.57,2596.22,600.13,605.18,31.73,0000 0000 0000 0000 000000